Weather History for EGBB - February, 2013

Change the Weather History Date:

Wednesday, February 27, 2013

  Actual Average Record
Temperature  
Mean Temperature 38 °F -  
Max Temperature 44 °F 48 °F 55 °F (2003)
Min Temperature 32 °F 35 °F 26 °F (2004)
Degree Days  
Heating Degree Days 27    
Moisture  
Dew Point 33 °F    
Average Humidity 85    
Maximum Humidity 93    
Minimum Humidity 66    
Precipitation  
Precipitation 0.00 in 0.07 in - ()
Sea Level Pressure  
Sea Level Pressure 30.58 in    
Wind  
Wind Speed 9 mph ()    
Max Wind Speed 14 mph    
Max Gust Speed -    
Visibility 4.5 miles    
Events      
Averages and records for this station are not official NWS values.
T = Trace of Precipitation, MM = Missing Value Source: Averaged Metar Reports

Daily Weather History Graph

Daily Weather History Graph

Search for Another Location

Airport or City:

Trip Planner

Search our weather history database for the weather conditions in past years. The results will help you decide how hot, cold, wet, or windy it might be!

Date:

Astronomy

Feb. 27, 2013 Rise Set
Actual Time 6:57 AM GMT 5:42 PM GMT
Civil Twilight 6:23 AM GMT 6:17 PM GMT
Nautical Twilight 5:43 AM GMT 6:56 PM GMT
Astronomical Twilight 5:04 AM GMT 7:36 PM GMT
Moon 8:11 PM GMT (2/27) 7:05 AM GMT (2/27)
Length of Visible Light 11h 53m
Length of Day
10h 45m
Full, 97% of the Moon is Illuminated
Feb 27
Full
Mar 4
Last Quarter
Mar 11
New
Mar 19
First Quarter
Mar 27
Full

Hourly Weather History & Observations

Time (GMT) Temp. Windchill Dew Point Humidity Pressure Visibility Wind Dir Wind Speed Gust Speed Precip Events Conditions
12:20 AM 35.6 °F 28.0 °F 33.8 °F 93% 30.63 in 3.7 mi NE 10.4 mph - N/A   Overcast
12:50 AM 35.6 °F 28.6 °F 33.8 °F 93% 30.63 in 3.7 mi NE 9.2 mph - N/A   Mostly Cloudy
1:20 AM 35.6 °F 28.6 °F 33.8 °F 93% 30.63 in 3.7 mi NE 9.2 mph - N/A   Overcast
1:50 AM 35.6 °F 28.6 °F 33.8 °F 93% 30.63 in 3.1 mi NE 9.2 mph - N/A   Overcast
2:20 AM 35.6 °F 29.2 °F 33.8 °F 93% 30.63 in 3.1 mi NE 8.1 mph - N/A   Overcast
2:50 AM 35.6 °F 28.0 °F 33.8 °F 93% 30.60 in 3.7 mi NE 10.4 mph - N/A   Overcast
3:20 AM 35.6 °F 28.0 °F 33.8 °F 93% 30.60 in 3.1 mi NNE 10.4 mph - N/A   Overcast
3:50 AM 35.6 °F 29.2 °F 33.8 °F 93% 30.60 in 3.7 mi NE 8.1 mph - N/A   Overcast
4:20 AM 35.6 °F 28.0 °F 33.8 °F 93% 30.60 in 3.7 mi NE 10.4 mph - N/A   Overcast
4:50 AM 35.6 °F 28.0 °F 33.8 °F 93% 30.60 in 3.7 mi NE 10.4 mph - N/A   Overcast
5:20 AM 35.6 °F 28.0 °F 33.8 °F 93% 30.60 in 3.7 mi NNE 10.4 mph - N/A   Overcast
5:50 AM 35.6 °F 28.0 °F 33.8 °F 93% 30.60 in 3.7 mi NNE 10.4 mph - N/A   Overcast
6:20 AM 35.6 °F 28.6 °F 33.8 °F 93% 30.60 in 3.7 mi NE 9.2 mph - N/A   Overcast
6:50 AM 35.6 °F 29.2 °F 33.8 °F 93% 30.60 in 3.1 mi NNE 8.1 mph - N/A   Overcast
7:20 AM 35.6 °F 27.1 °F 33.8 °F 93% 30.60 in 3.1 mi NNE 12.7 mph - N/A   Overcast
7:50 AM 35.6 °F 27.5 °F 33.8 °F 93% 30.60 in 3.1 mi NNE 11.5 mph - N/A   Overcast
8:20 AM 35.6 °F 28.6 °F 33.8 °F 93% 30.60 in 3.1 mi NE 9.2 mph - N/A   Overcast
8:50 AM 35.6 °F 29.2 °F 33.8 °F 93% 30.60 in 3.7 mi NE 8.1 mph - N/A   Overcast
9:20 AM 35.6 °F 28.6 °F 33.8 °F 93% 30.60 in 4.3 mi NNE 9.2 mph - N/A   Overcast
10:20 AM 35.6 °F 28.0 °F 33.8 °F 93% 30.60 in 5.0 mi NE 10.4 mph - N/A   Overcast
10:50 AM 35.6 °F 28.0 °F 33.8 °F 93% 30.60 in 5.0 mi NNE 10.4 mph - N/A   Overcast
11:20 AM 37.4 °F 29.8 °F 33.8 °F 87% 30.60 in 5.0 mi NNE 11.5 mph - N/A   Overcast
11:50 AM 37.4 °F 30.8 °F 33.8 °F 87% 30.60 in 6.2 mi NE 9.2 mph - N/A   Mostly Cloudy
12:20 PM 39.2 °F 33.0 °F 33.8 °F 81% 30.60 in 6.2 mi NNE 9.2 mph - N/A   Mostly Cloudy
12:50 PM 41.0 °F 34.7 °F 33.8 °F 76% 30.57 in 6.2 mi NNE 10.4 mph - N/A   Scattered Clouds
1:20 PM 41.0 °F 33.9 °F 33.8 °F 76% 30.57 in 6.2 mi NNE 12.7 mph - N/A   Scattered Clouds
1:50 PM 42.8 °F 36.6 °F 33.8 °F 70% 30.57 in 6.2 mi NNE 11.5 mph - N/A   Scattered Clouds
2:20 PM 42.8 °F 35.8 °F 33.8 °F 70% 30.54 in 6.2 mi NNE 13.8 mph - N/A   Partly Cloudy
2:50 PM 42.8 °F 37.0 °F 33.8 °F 70% 30.54 in 6.2 mi NE 10.4 mph - N/A   Partly Cloudy
3:20 PM 42.8 °F 36.6 °F 33.8 °F 70% 30.54 in 6.2 mi NE 11.5 mph - N/A   Partly Cloudy
3:50 PM 44.6 °F 39.2 °F 33.8 °F 66% 30.54 in 6.2 mi NNE 10.4 mph - N/A   Partly Cloudy
4:20 PM 42.8 °F 37.0 °F 33.8 °F 70% 30.54 in 6.2 mi NNE 10.4 mph - N/A   Partly Cloudy
4:50 PM 42.8 °F 38.6 °F 33.8 °F 70% 30.54 in - NNE 6.9 mph - N/A   Clear
5:20 PM 42.8 °F 38.0 °F 33.8 °F 70% 30.54 in - NNE 8.1 mph - N/A   Clear
5:50 PM 41.0 °F 35.8 °F 32.0 °F 70% 30.54 in - NE 8.1 mph - N/A   Clear
6:20 PM 41.0 °F 36.4 °F 32.0 °F 70% 30.54 in - NE 6.9 mph - N/A   Clear
6:50 PM 39.2 °F 34.2 °F 32.0 °F 75% 30.54 in - NE 6.9 mph - N/A   Clear
7:20 PM 37.4 °F 32.8 °F 30.2 °F 75% 30.54 in - NNE 5.8 mph - N/A   Clear
7:50 PM 37.4 °F 33.8 °F 32.0 °F 81% 30.54 in - NNE 4.6 mph - N/A   Clear
8:20 PM 37.4 °F 32.1 °F 32.0 °F 81% 30.54 in - NE 6.9 mph - N/A   Clear
8:50 PM 37.4 °F 32.8 °F 32.0 °F 81% 30.54 in - NE 5.8 mph - N/A   Clear
9:20 PM 35.6 °F 30.7 °F 32.0 °F 87% 30.54 in - NE 5.8 mph - N/A   Clear
9:50 PM 35.6 °F 30.7 °F 30.2 °F 81% 30.54 in - NNE 5.8 mph - N/A   Clear
10:20 PM 33.8 °F 29.6 °F 30.2 °F 87% 30.54 in - NNE 4.6 mph - N/A   Clear
10:50 PM 32.0 °F 26.4 °F 30.2 °F 93% 30.54 in - North 5.8 mph - N/A   Clear
11:20 PM 33.8 °F 28.6 °F 32.0 °F 93% 30.54 in - North 5.8 mph - N/A   Clear
11:50 PM 33.8 °F 29.6 °F 32.0 °F 93% 30.54 in 4.3 mi North 4.6 mph - N/A   Unknown